Regional Weather Roundup
Issued by NWS

Home | Current Version | Previous Version | Graphics & Text | Print | Product List | Glossary On
Versions: 1 2 3 4 5 6 7 8 9 10 11 12 13 14 15 16 17 18 19 20 21 22 23 24 25 26 27 28 29 30 31 32 33 34 35 36 37 38 39 40 41 42 43 44 45 46 47 48 49 50
000
ASUS45 KBOI 020210
RWRID
WEATHER ROUNDUP FOR IDAHO
NATIONAL WEATHER SERVICE BOISE ID
700 PM MST SUN MAR 01 2015

NOTE: "FAIR" INDICATES FEW OR NO CLOUDS BELOW 12000 FEET
WITH NO SIGNIFICANT WEATHER AND/OR OBSTRUCTIONS TO VISIBILITY

IDZ012-014-020300-
SOUTHWEST IDAHO


CITY           SKY/WX    TMP DP  RH WIND       PRES   REMARKS
BOISE          CLEAR     43  19  38 CALM      30.03F
CALDWELL       CLEAR     43  18  36 CALM      30.05S
MOUNTAIN HOME  CLEAR     41  19  41 CALM      30.02F
$$

IDZ016-017-020300-
SOUTHCENTRAL IDAHO


CITY           SKY/WX    TMP DP  RH WIND       PRES   REMARKS
BURLEY         CLEAR     34   6  31 E3        30.00S
JEROME         CLEAR     32   5  32 NE7       30.02S WCI  26
TWIN FALLS     CLEAR     30   8  39 E3        30.01S
$$

IDZ019>023-020300-
SOUTHEAST IDAHO


CITY           SKY/WX    TMP DP  RH WIND       PRES   REMARKS
IDAHO FALLS    CLEAR     31   4  31 NW3       30.02S
POCATELLO      CLEAR     28   5  37 S3        30.02S
REXBURG        CLEAR     31  -3  23 E5        30.01S WCI  26
$$

IDZ006-010-011-018-031-032-020300-
CENTRAL IDAHO MOUNTAINS


CITY           SKY/WX    TMP DP  RH WIND       PRES   REMARKS
MCCALL         CLEAR     32  15  49 SW3       29.96F
HAILEY         PTCLDY    34  18  51 CALM      30.00F
STANLEY          N/A     24  11  57 SE3       29.95F
SALMON         CLEAR     28  12  50 SE3       29.99S
CHALLIS        CLEAR     30   9  41 NW6       29.96S WCI  24
$$

IDZ002-004-006-007-026-020300-
NORTHERN IDAHO


CITY           SKY/WX    TMP DP  RH WIND       PRES   REMARKS
LEWISTON       MOCLDY    43  19  38 S3        30.01F
LOWELL           N/A     35  25  66 CALM      30.03S
COEUR D`ALENE  MOCLDY    37  12  35 CALM      29.99F
MULLAN PASS    PTCLDY    23   2  40 VRB5      29.90F WCI  17
$$


USA.gov is the U.S. government's official web portal to all federal, state and local government web resources and services.